This demonstration page uses our WeatherBlox Daily Observations layout. Learn more.

Left ArrowRight Arrow

34.16533, -84.80231

Hourly Observations for March 15, 2020

Temp ( °F °C ) Dew Point ( °F °C ) Humidity (%) Winds ( mph kmh ) Pressure ( in mb ) Visibility ( mi km ) Precip ( " mm )
12:53 am 00:53 Mostly Clear 57 13.9 49 9.4 74 74 Calm 30.27 1025 10 16 0.00 0.00
1:53 am 01:53 Cloudy 59 15 48 8.9 67 67 N 7 11 30.29 1026 10 16 0.00 0.00
2:53 am 02:53 Cloudy with Light Rain 54 12.2 52 11.1 93 93 SE 6 9 30.26 1025 10 16 0.05 1.27
3:53 am 03:53 Cloudy 55 12.8 53 11.7 93 93 SSE 3 6 30.24 1024 10 16 0.01 0.25
4:53 am 04:53 Cloudy 55 12.8 53 11.7 93 93 Calm 30.21 1023 9 14 0.00 0.00
5:53 am 05:53 Cloudy 56 13.3 53 11.7 90 90 Calm 30.20 1023 10 16 0.00 0.00
6:53 am 06:53 Cloudy 56 13.3 54 12.2 93 93 Calm 30.23 1024 8 13 0.00 0.00
7:53 am 07:53 Cloudy 56 13.3 53 11.7 90 90 VRB 3 6 30.26 1025 8 13 0.00 0.00
8:53 am 08:53 Cloudy with Light Rain 56 13.3 54 12.2 93 93 Calm 30.28 1025 5 8 0.03 0.76
9:53 am 09:53 Mostly Cloudy 59 15 56 13.3 90 90 Calm 30.27 1025 7 11 0.01 0.25
10:53 am 10:53 Cloudy with Light Rain 62 16.7 60 15.6 93 93 Calm 30.27 1025 4 6 0.02 0.51
11:53 am 11:53 Cloudy with Light Rain 64 17.8 61 16.1 90 90 Calm 30.29 1026 9 14 0.00 0.00
12:21 pm 12:21 Cloudy with Light Rain 64 17.8 61 16.1 90 90 Calm 30.31 1026 9 14 0.01 0.25
12:39 pm 12:39 Cloudy with Light Rain 64 17.8 61 16.1 90 90 Calm 30.31 1026 9 14 0.01 0.25
12:53 pm 12:53 Cloudy with Light Rain 64 17.8 61 16.1 90 90 Calm 30.29 1026 7 11 0.02 0.51
1:42 pm 13:42 Cloudy with Rain 63 17.2 61 16.1 93 93 Calm 30.30 1026 2 3 0.08 2.03
1:49 pm 13:49 Cloudy with Rain 63 17 61 16 94 94 Calm 30.30 1026 2 3 0.10 2.54
1:53 pm 13:53 Cloudy with Light Rain 63 17.2 61 16.1 93 93 Calm 30.28 1025 4 6 0.10 2.54
2:22 pm 14:22 Cloudy 64 17.8 61 16.1 90 90 Calm 30.29 1026 10 16 0.00 0.00
2:30 pm 14:30 Cloudy with Light Rain 64 17.8 62 16.7 93 93 Calm 30.29 1026 10 16 0.00 0.00
2:37 pm 14:37 Cloudy with Light Rain 65 18.3 62 16.7 90 90 Calm 30.29 1026 10 16 0.01 0.25
2:45 pm 14:45 Cloudy 63 17.2 59 15 87 87 NNE 10 17 30.29 1026 10 16 0.01 0.25
2:53 pm 14:53 Cloudy 59 15 56 13.3 90 90 NNE 12 19 30.28 1025 10 16 0.01 0.25
3:24 pm 15:24 Cloudy 59 15 55 12.8 87 87 N 7 11 30.29 1026 10 16 0.00 0.00
3:53 pm 15:53 Cloudy 58 14.4 54 12.2 87 87 N 8 13 30.27 1025 10 16 0.00 0.00
4:53 pm 16:53 Cloudy 58 14.4 53 11.7 84 84 N 7 11 30.28 1025 10 16 0.00 0.00
5:53 pm 17:53 Cloudy 58 14.4 53 11.7 84 84 N 9 15 30.27 1025 10 16 0.00 0.00
6:18 pm 18:18 Cloudy 58 14.4 52 11.1 81 81 N 7 11 30.29 1026 10 16 0.00 0.00
6:53 pm 18:53 Cloudy 58 14.4 52 11.1 81 81 Calm 30.29 1026 10 16 0.00 0.00
7:31 pm 19:31 Cloudy 57 13.9 52 11.1 83 83 Calm 30.31 1026 10 16 0.00 0.00
7:53 pm 19:53 Cloudy 57 13.9 52 11.1 83 83 Calm 30.29 1026 10 16 0.00 0.00
8:53 pm 20:53 Cloudy 57 13.9 51 10.6 81 81 NNW 5 7 30.30 1026 10 16 0.00 0.00
9:14 pm 21:14 Cloudy 57 13.9 50 10 78 78 VRB 3 6 30.32 1027 10 16 0.00 0.00
9:53 pm 21:53 Cloudy 56 13.3 50 10 81 81 N 3 6 30.31 1026 10 16 0.00 0.00
10:53 pm 22:53 Cloudy 56 13.3 50 10 81 81 NNW 3 6 30.31 1027 10 16 0.00 0.00
11:53 pm 23:53 Cloudy 55 12.8 49 9.4 80 80 Calm 30.32 1027 10 16 0.00 0.00

Powered by AerisWeather